Skip Page Navigation
NASA JPL Caltech
NASA Logo - Jet Propulsion Laboratory + View the NASA Portal
+ Center for Near-Earth Object Studies
JPL Home Earth Solar System Stars & Galaxies Technology
JPL Solar System Dynamics
BODIES ORBITS EPHEMERIDES TOOLS PHYSICAL DATA DISCOVERY FAQ SITE MAP
JPL Small-Body Database Browser
Search: [ help ]  
362348 (2010 MO63)
Classification: Main-belt Asteroid          SPK-ID: 2362348
Ephemeris | Orbit Diagram | Orbital Elements | Mission Design | Physical Parameters | Discovery Circumstances ]

[ show orbit diagram ]
Orbital Elements at Epoch 2459200.5 (2020-Dec-17.0) TDB
Reference: JPL 15 (heliocentric ecliptic J2000)
 Element Value Uncertainty (1-sigma)   Units 
e .07853639553069322 6.6955e-08  
a 3.168332967378565 5.5016e-08 au
q 2.919503516279587 2.2142e-07 au
i 15.82581399121748 7.0427e-06 deg
node 186.4708338594794 2.5722e-05 deg
peri 199.336643805671 5.1811e-05 deg
M 274.3048041646701 4.7825e-05 deg
tp 2459690.841471664914
(2022-Apr-21.34147167)
0.00027727 TDB
period 2059.892950575335
5.64
5.3653e-05
1.469e-07
d
yr
n .1747663634168226 4.552e-09 deg/d
Q 3.417162418477543 5.9337e-08 au
  Orbit Determination Parameters
   # obs. used (total)      158  
   data-arc span      6700 days (18.34 yr)  
   first obs. used      2002-03-17  
   last obs. used      2020-07-20  
   planetary ephem.      DE441  
   SB-pert. ephem.      SB441-N16  
   condition code      0  
   norm. resid. RMS      .62726  
   source      ORB  
   producer      Otto Matic  
   solution date      2021-Apr-14 09:39:09  

Additional Information
 Earth MOID = 1.9244 au 
 Jupiter MOID = 2.02533 au 
 T_jup = 3.139 
[ show covariance matrix ]

Ephemeris | Orbit Diagram | Orbital Elements | Mission Design | Physical Parameters | Discovery Circumstances ]

Physical Parameter Table
Parameter Symbol Value Units Sigma Reference Notes
absolute magnitude H 16.00   n/a E2021B25  
diameter diameter 4.218 km 0.202 urn:nasa:pds:neowise_diameters_albedos::2.0[mainbelt] (http://adsabs.harvard.edu/abs/2011ApJ...741...68M)  
geometric albedo albedo 0.048   0.010 urn:nasa:pds:neowise_diameters_albedos::2.0[mainbelt] (http://adsabs.harvard.edu/abs/2011ApJ...741...68M)  

362348 (2010 MO63)          Discovered 2002-Mar-17 by Spacewatch at Kitt Peak
Reference: Last Updated: 2013-04-29

Alternate Designations
 2010 MO63 = 2002 GZ35 
Ephemeris | Orbit Diagram | Orbital Elements | Mission Design | Physical Parameters | Discovery Circumstances ]
ABOUT SSD CREDITS/AWARDS PRIVACY/COPYRIGHT GLOSSARY LINKS
FirstGov 2021-Jun-21 06:23 UT
(server date/time)  
NASA Home Page
Site Manager:   Ryan S. Park
Webmaster  Alan B. Chamberlin